| time (UTC) | temp F | wind direction | speed knots | gust knots | rain 1hr in | rain 24hr in | rain mn in | humidity % | barometer mb |
| 20260906052119 | 57 | 213 | 0.9 | 1.7 | 0.00 | 0.00 | 0.00 | 59 | 1022.6 |
| 20260906050619 | 57 | 219 | 0.9 | 1.7 | 0.00 | 0.00 | 0.00 | 58 | 1022.4 |
| 20260906050119 | 57 | 227 | 0.9 | 1.7 | 0.00 | 0.00 | 0.00 | 58 | 1022.5 |
| 20260906045119 | 57 | 316 | 0.0 | 0.0 | 0.00 | 0.00 | 0.00 | 57 | 1022.3 |
| 20260906044119 | 57 | 316 | 0.0 | 0.9 | 0.00 | 0.00 | 0.00 | 57 | 1022.4 |
| 20260906043119 | 57 | 313 | 0.0 | 0.9 | 0.00 | 0.00 | 0.00 | 57 | 1022.2 |
| 20260906042619 | 57 | 280 | 0.9 | 2.6 | 0.00 | 0.00 | 0.00 | 57 | 1022.0 |
| 20260906041119 | 57 | 311 | 0.9 | 1.7 | 0.00 | 0.00 | 0.00 | 58 | 1022.0 |
| 20260906040119 | 57 | 266 | 0.9 | 1.7 | 0.00 | 0.00 | 0.00 | 56 | 1021.8 |
| 20260906035619 | 57 | 303 | 0.0 | 0.9 | 0.00 | 0.00 | 0.00 | 57 | 1021.7 |
| 20260906034119 | 57 | 324 | 0.0 | 0.9 | 0.00 | 0.00 | 0.00 | 56 | 1021.4 |
| 20260906033120 | 57 | 307 | 0.9 | 1.7 | 0.00 | 0.00 | 0.00 | 55 | 1021.3 |
| 20260906032619 | 57 | 210 | 0.0 | 0.9 | 0.00 | 0.00 | 0.00 | 55 | 1021.2 |
| 20260906032119 | 57 | 210 | 0.9 | 0.9 | 0.00 | 0.00 | 0.00 | 56 | 1021.2 |
| 20260906030119 | 58 | 286 | 0.0 | 1.7 | 0.00 | 0.00 | 0.00 | 55 | 1020.7 |
| 20260906025619 | 58 | 325 | 0.9 | 1.7 | 0.00 | 0.00 | 0.00 | 55 | 1020.9 |
| 20260906024119 | 58 | 314 | 0.9 | 0.9 | 0.00 | 0.00 | 0.00 | 54 | 1020.7 |
| 20260906023619 | 58 | 280 | 0.0 | 0.9 | 0.00 | 0.00 | 0.00 | 54 | 1020.5 |
| 20260906023119 | 58 | 0 | 0.0 | 0.9 | 0.00 | 0.00 | 0.00 | 54 | 1020.5 |
| 20260906022619 | 58 | 2 | 0.9 | 1.7 | 0.00 | 0.00 | 0.00 | 54 | 1020.5 |
| 20260906021119 | 58 | 17 | 0.9 | 1.7 | 0.00 | 0.00 | 0.00 | 53 | 1020.5 |
| 20260906020619 | 58 | 307 | 0.0 | 0.0 | 0.00 | 0.00 | 0.00 | 53 | 1020.4 |
| 20260906020119 | 58 | 301 | 0.0 | 0.9 | 0.00 | 0.00 | 0.00 | 53 | 1020.4 |
| 20260906015619 | 58 | 218 | 0.0 | 0.9 | 0.00 | 0.00 | 0.00 | 52 | 1020.2 |
| 20260906012619 | 59 | 39 | 0.9 | 1.7 | 0.00 | 0.00 | 0.00 | 52 | 1020.1 |
| 20260906012119 | 59 | 27 | 0.9 | 0.9 | 0.00 | 0.00 | 0.00 | 52 | 1019.8 |
| 20260906011619 | 59 | 11 | 0.9 | 1.7 | 0.00 | 0.00 | 0.00 | 52 | 1019.7 |
| 20260906010619 | 59 | 1 | 0.0 | 0.9 | 0.00 | 0.00 | 0.00 | 52 | 1019.8 |
| 20260906005619 | 60 | 106 | 0.9 | 1.7 | 0.00 | 0.00 | 0.00 | 51 | 1019.7 |
| 20260906004119 | 60 | 103 | 0.9 | 1.7 | 0.00 | 0.00 | 0.00 | 52 | 1019.8 |
| 20260906003619 | 60 | 101 | 0.0 | 0.0 | 0.00 | 0.00 | 0.00 | 51 | 1019.6 |
| 20260906003119 | 60 | 101 | 0.0 | 0.0 | 0.00 | 0.00 | 0.00 | 51 | 1019.4 |
| 20260906002620 | 60 | 101 | 0.0 | 0.9 | 0.00 | 0.00 | 0.00 | 51 | 1019.5 |
| 20260906002119 | 60 | 101 | 0.0 | 0.9 | 0.00 | 0.00 | 0.00 | 51 | 1019.4 |
| 20260905235619 | 60 | 99 | 0.9 | 0.9 | 0.00 | 0.00 | 0.00 | 49 | 1019.1 |
| 20260905235119 | 61 | 95 | 0.0 | 0.9 | 0.00 | 0.00 | 0.00 | 49 | 1019.1 |
| 20260905234619 | 61 | 95 | 0.9 | 0.9 | 0.00 | 0.00 | 0.00 | 49 | 1019.0 |
| 20260905232119 | 62 | 50 | 0.0 | 1.7 | 0.00 | 0.00 | 0.00 | 47 | 1018.8 |
| 20260905231619 | 62 | 114 | 0.9 | 4.3 | 0.00 | 0.00 | 0.00 | 47 | 1019.0 |
| 20260905231119 | 62 | 63 | 0.9 | 2.6 | 0.00 | 0.00 | 0.00 | 47 | 1018.8 |
| 20260905230119 | 63 | 23 | 0.0 | 0.0 | 0.00 | 0.00 | 0.00 | 46 | 1018.9 |
| 20260905225619 | 63 | 10 | 0.0 | 0.0 | 0.00 | 0.00 | 0.00 | 46 | 1018.6 |
| 20260905225119 | 63 | 2 | 0.0 | 0.0 | 0.00 | 0.00 | 0.00 | 46 | 1018.8 |
| 20260905223120 | 64 | 259 | 0.0 | 0.0 | 0.00 | 0.00 | 0.00 | 46 | 1018.5 |
| 20260905222619 | 64 | 286 | 0.0 | 0.0 | 0.00 | 0.00 | 0.00 | 46 | 1018.4 |
| 20260905221619 | 64 | 306 | 0.0 | 0.0 | 0.00 | 0.00 | 0.00 | 46 | 1018.4 |
| 20260905221119 | 65 | 326 | 0.0 | 0.0 | 0.00 | 0.00 | 0.00 | 46 | 1018.2 |
| 20260905220619 | 65 | 326 | 0.0 | 0.0 | 0.00 | 0.00 | 0.00 | 46 | 1018.2 |
| 20260905215619 | 65 | 279 | 0.0 | 0.9 | 0.00 | 0.00 | 0.00 | 45 | 1017.9 |
| 20260905215119 | 65 | 282 | 0.0 | 0.9 | 0.00 | 0.00 | 0.00 | 44 | 1017.9 |
| 20260905214619 | 65 | 275 | 0.9 | 1.7 | 0.00 | 0.00 | 0.00 | 44 | 1017.9 |
| 20260905213619 | 66 | 304 | 0.0 | 0.9 | 0.00 | 0.00 | 0.00 | 44 | 1017.9 |
| 20260905212619 | 66 | 306 | 0.9 | 1.7 | 0.00 | 0.00 | 0.00 | 43 | 1017.9 |
| 20260905212119 | 66 | 319 | 0.9 | 0.9 | 0.00 | 0.00 | 0.00 | 43 | 1017.7 |
| 20260905211619 | 66 | 276 | 0.9 | 1.7 | 0.00 | 0.00 | 0.00 | 43 | 1017.8 |
| 20260905211119 | 67 | 314 | 0.9 | 1.7 | 0.00 | 0.00 | 0.00 | 42 | 1017.5 |
| 20260905210619 | 67 | 282 | 0.9 | 1.7 | 0.00 | 0.00 | 0.00 | 42 | 1017.6 |
| 20260905210119 | 67 | 292 | 0.0 | 0.9 | 0.00 | 0.00 | 0.00 | 42 | 1017.5 |
| 20260905205619 | 67 | 314 | 0.9 | 0.9 | 0.00 | 0.00 | 0.00 | 41 | 1017.3 |
| 20260905203619 | 68 | 221 | 0.9 | 1.7 | 0.00 | 0.00 | 0.00 | 40 | 1017.4 |
| 20260905202119 | 69 | 23 | 0.9 | 2.6 | 0.00 | 0.00 | 0.00 | 40 | 1017.1 |
| 20260905201119 | 69 | 257 | 0.9 | 2.6 | 0.00 | 0.00 | 0.00 | 39 | 1017.2 |
| 20260905200619 | 70 | 249 | 0.9 | 1.7 | 0.00 | 0.00 | 0.00 | 39 | 1017.0 |
| 20260905200120 | 70 | 248 | 0.9 | 1.7 | 0.00 | 0.00 | 0.00 | 39 | 1016.8 |
| 20260905195619 | 70 | 253 | 0.9 | 1.7 | 0.00 | 0.00 | 0.00 | 38 | 1016.9 |
| 20260905194619 | 71 | 29 | 0.9 | 1.7 | 0.00 | 0.00 | 0.00 | 37 | 1016.6 |
| 20260905194120 | 71 | 312 | 0.0 | 2.6 | 0.00 | 0.00 | 0.00 | 37 | 1016.4 |
| 20260905191119 | 73 | 300 | 1.7 | 2.6 | 0.00 | 0.00 | 0.00 | 36 | 1016.3 |
| 20260905184119 | 75 | 249 | 0.0 | 1.7 | 0.00 | 0.00 | 0.00 | 33 | 1015.7 |
| 20260905183619 | 75 | 243 | 0.9 | 2.6 | 0.00 | 0.00 | 0.00 | 33 | 1015.6 |
| 20260905183119 | 75 | 258 | 0.0 | 1.7 | 0.00 | 0.00 | 0.00 | 33 | 1015.4 |
| 20260905182619 | 76 | 261 | 0.9 | 1.7 | 0.00 | 0.00 | 0.00 | 33 | 1015.4 |
| 20260905182119 | 76 | 296 | 0.9 | 0.9 | 0.00 | 0.00 | 0.00 | 32 | 1015.4 |
| 20260905181619 | 76 | 332 | 0.9 | 1.7 | 0.00 | 0.00 | 0.00 | 32 | 1015.4 |
| 20260905180619 | 77 | 33 | 0.0 | 0.9 | 0.00 | 0.00 | 0.00 | 31 | 1014.9 |
| 20260905175119 | 78 | 34 | 0.9 | 0.9 | 0.00 | 0.00 | 0.00 | 30 | 1014.8 |
| 20260905172619 | 81 | 328 | 0.0 | 0.9 | 0.00 | 0.00 | 0.00 | 29 | 1013.9 |
| 20260905171619 | 82 | 323 | 0.0 | 0.9 | 0.00 | 0.00 | 0.00 | 28 | 1013.8 |
| 20260905171119 | 82 | 312 | 0.9 | 1.7 | 0.00 | 0.00 | 0.00 | 28 | 1013.7 |
| 20260905170619 | 83 | 301 | 0.0 | 0.9 | 0.00 | 0.00 | 0.00 | 28 | 1013.5 |
| 20260905165119 | 84 | 311 | 0.9 | 1.7 | 0.00 | 0.00 | 0.00 | 26 | 1013.3 |
| 20260905163119 | 86 | 291 | 0.9 | 1.7 | 0.00 | 0.00 | 0.00 | 25 | 1012.7 |
| 20260905162619 | 87 | 302 | 0.9 | 1.7 | 0.00 | 0.00 | 0.00 | 25 | 1012.6 |
| 20260905161119 | 87 | 289 | 1.7 | 2.6 | 0.00 | 0.00 | 0.00 | 24 | 1012.6 |
| 20260905155619 | 88 | 305 | 1.7 | 5.2 | 0.00 | 0.00 | 0.00 | 23 | 1012.3 |
| 20260905154619 | 89 | 328 | 2.6 | 5.2 | 0.00 | 0.00 | 0.00 | 23 | 1012.2 |
| 20260905154119 | 89 | 321 | 2.6 | 6.1 | 0.00 | 0.00 | 0.00 | 23 | 1012.4 |
| 20260905153619 | 89 | 326 | 2.6 | 6.1 | 0.00 | 0.00 | 0.00 | 23 | 1012.3 |
| 20260905153119 | 89 | 312 | 1.7 | 5.2 | 0.00 | 0.00 | 0.00 | 24 | 1012.2 |
| 20260905150119 | 90 | 323 | 3.5 | 7.8 | 0.00 | 0.00 | 0.00 | 24 | 1012.2 |
| 20260905145619 | 90 | 324 | 2.6 | 7.8 | 0.00 | 0.00 | 0.00 | 23 | 1012.3 |
| 20260905145119 | 90 | 297 | 3.5 | 10.4 | 0.00 | 0.00 | 0.00 | 23 | 1012.3 |
| 20260905143119 | 91 | 337 | 3.5 | 7.0 | 0.00 | 0.00 | 0.00 | 23 | 1012.2 |
| 20260905142118 | 91 | 328 | 5.2 | 7.8 | 0.00 | 0.00 | 0.00 | 23 | 1012.2 |
| 20260905140619 | 92 | 323 | 2.6 | 7.8 | 0.00 | 0.00 | 0.00 | 24 | 1012.1 |
| 20260905140119 | 92 | 323 | 3.5 | 7.0 | 0.00 | 0.00 | 0.00 | 23 | 1012.1 |
| 20260905135619 | 92 | 303 | 5.2 | 13.9 | 0.00 | 0.00 | 0.00 | 24 | 1012.2 |
| 20260905135119 | 92 | 319 | 1.7 | 6.1 | 0.00 | 0.00 | 0.00 | 24 | 1012.0 |
| 20260905133619 | 92 | 322 | 1.7 | 7.8 | 0.00 | 0.00 | 0.00 | 25 | 1012.3 |
| 20260905133119 | 92 | 297 | 3.5 | 7.0 | 0.00 | 0.00 | 0.00 | 25 | 1012.2 |
| 20260905131119 | 93 | 308 | 5.2 | 7.8 | 0.00 | 0.00 | 0.00 | 26 | 1012.4 |
| 20260905130619 | 92 | 270 | 2.6 | 6.1 | 0.00 | 0.00 | 0.00 | 26 | 1012.2 |
| 20260905130119 | 92 | 337 | 3.5 | 6.1 | 0.00 | 0.00 | 0.00 | 26 | 1012.4 |
| 20260905125619 | 92 | 299 | 2.6 | 6.1 | 0.00 | 0.00 | 0.00 | 27 | 1012.6 |
| 20260905125120 | 92 | 65 | 1.7 | 5.2 | 0.00 | 0.00 | 0.00 | 27 | 1012.6 |
| 20260905123119 | 91 | 325 | 1.7 | 5.2 | 0.00 | 0.00 | 0.00 | 25 | 1012.9 |
| 20260905115119 | 91 | 306 | 1.7 | 6.1 | 0.00 | 0.00 | 0.00 | 29 | 1013.3 |
| 20260905114619 | 91 | 329 | 2.6 | 11.3 | 0.00 | 0.00 | 0.00 | 29 | 1013.4 |
| 20260905114119 | 91 | 310 | 5.2 | 11.3 | 0.00 | 0.00 | 0.00 | 29 | 1013.5 |
| 20260905113119 | 90 | 327 | 1.7 | 5.2 | 0.00 | 0.00 | 0.00 | 31 | 1013.6 |
| 20260905112619 | 90 | 234 | 2.6 | 5.2 | 0.00 | 0.00 | 0.00 | 30 | 1013.4 |
| 20260905111119 | 89 | 329 | 1.7 | 5.2 | 0.00 | 0.00 | 0.00 | 30 | 1013.9 |
| 20260905110119 | 88 | 330 | 2.6 | 6.1 | 0.00 | 0.00 | 0.00 | 31 | 1014.1 |
| 20260905105119 | 88 | 240 | 1.7 | 5.2 | 0.00 | 0.00 | 0.00 | 31 | 1014.2 |
| 20260905104119 | 87 | 337 | 3.5 | 7.0 | 0.00 | 0.00 | 0.00 | 32 | 1014.4 |
| 20260905103619 | 87 | 327 | 3.5 | 7.0 | 0.00 | 0.00 | 0.00 | 32 | 1014.4 |
| 20260905102618 | 86 | 265 | 0.9 | 6.1 | 0.00 | 0.00 | 0.00 | 33 | 1014.7 |
| 20260905102119 | 86 | 317 | 3.5 | 7.0 | 0.00 | 0.00 | 0.00 | 33 | 1014.7 |
| 20260905100119 | 84 | 2 | 4.3 | 5.2 | 0.00 | 0.00 | 0.00 | 36 | 1015.0 |
| 20260905095619 | 84 | 347 | 3.5 | 7.0 | 0.00 | 0.00 | 0.00 | 37 | 1015.4 |
| 20260905095118 | 83 | 18 | 3.5 | 7.0 | 0.00 | 0.00 | 0.00 | 37 | 1015.5 |
| 20260905094119 | 83 | 14 | 1.7 | 4.3 | 0.00 | 0.00 | 0.00 | 39 | 1015.5 |
| 20260905085619 | 78 | 342 | 0.9 | 6.1 | 0.00 | 0.00 | 0.00 | 45 | 1016.8 |
| 20260905085119 | 78 | 268 | 1.7 | 6.1 | 0.00 | 0.00 | 0.00 | 46 | 1016.9 |
| 20260905084119 | 76 | 314 | 2.6 | 8.7 | 0.00 | 0.00 | 0.00 | 47 | 1017.1 |
| 20260905083619 | 76 | 326 | 2.6 | 7.0 | 0.00 | 0.00 | 0.00 | 49 | 1017.3 |
| 20260905082119 | 74 | 274 | 0.9 | 4.3 | 0.00 | 0.00 | 0.00 | 53 | 1017.5 |
| 20260905081619 | 73 | 346 | 1.7 | 5.2 | 0.00 | 0.00 | 0.00 | 53 | 1017.7 |
| 20260905081119 | 72 | 321 | 2.6 | 6.1 | 0.00 | 0.00 | 0.00 | 55 | 1018.1 |
| 20260905080618 | 71 | 310 | 0.9 | 1.7 | 0.00 | 0.00 | 0.00 | 55 | 1018.2 |
| 20260905075619 | 70 | 290 | 0.9 | 2.6 | 0.00 | 0.00 | 0.00 | 56 | 1018.6 |
| 20260905075119 | 70 | 313 | 0.9 | 1.7 | 0.00 | 0.00 | 0.00 | 57 | 1018.5 |
| 20260905074619 | 69 | 20 | 0.9 | 1.7 | 0.00 | 0.00 | 0.00 | 57 | 1018.7 |
| 20260905074119 | 68 | 257 | 0.9 | 1.7 | 0.00 | 0.00 | 0.00 | 58 | 1018.8 |
| 20260905072119 | 65 | 274 | 0.9 | 1.7 | 0.00 | 0.00 | 0.00 | 60 | 1019.2 |
| 20260905071118 | 64 | 280 | 0.9 | 2.6 | 0.00 | 0.00 | 0.00 | 61 | 1019.3 |
| 20260905070619 | 64 | 266 | 1.7 | 2.6 | 0.00 | 0.00 | 0.00 | 61 | 1019.4 |
| 20260905070119 | 63 | 294 | 0.9 | 1.7 | 0.00 | 0.00 | 0.00 | 62 | 1019.7 |
| 20260905063619 | 60 | 270 | 1.7 | 2.6 | 0.00 | 0.00 | 0.00 | 64 | 1020.2 |
| 20260905062619 | 59 | 248 | 0.9 | 1.7 | 0.00 | 0.00 | 0.00 | 65 | 1020.5 |
| 20260905062119 | 58 | 263 | 1.7 | 2.6 | 0.00 | 0.00 | 0.00 | 66 | 1020.6 |
| 20260905061619 | 58 | 256 | 0.9 | 2.6 | 0.00 | 0.00 | 0.00 | 66 | 1020.5 |
| 20260905060118 | 56 | 238 | 0.0 | 0.9 | 0.00 | 0.00 | 0.00 | 65 | 1021.0 |
| 20260905055619 | 55 | 231 | 0.0 | 1.7 | 0.00 | 0.00 | 0.00 | 65 | 1021.1 |
| 20260905053618 | 54 | 182 | 0.9 | 2.6 | 0.00 | 0.00 | 0.00 | 65 | 1021.1 |
| 20260905053119 | 54 | 173 | 1.7 | 2.6 | 0.00 | 0.00 | 0.00 | 65 | 1021.3 |
| 20260905052619 | 54 | 173 | 0.9 | 2.6 | 0.00 | 0.00 | 0.00 | 65 | 1021.2 |